Latest Coastal Weather Observations for Friendly Beaches

IDT60701

Issued at 6:21 am EST Tuesday 31 May 2016 (issued every 10 minutes, with the page automatically refreshed every 10 minutes)

About coastal observations | Map of coastal stations | Coastal observations for TAS | Marine services | Other Formats
Station Details ID: 092114 Name: FRIENDLY BEACHES Lat: -42.00 Lon: 148.28 Height: 55.0 m
Data from the previous 72 hours. | See also: Recent months at Friendly Beaches
Date/Time
EST
Temp

°C
Wind Pressure Rain
since 9am
mm
Weather Cloud Vis
km
Sea
Height
m
Swell
Dir
 
Speed
knots
Gust
knots
hPa Trend Height
m
Period
s
Dir
31/06:00am 3.3 WNW 7 8 1032.1 - 0.0 - - - - - - -
31/05:30am 3.5 WNW 7 8 1031.7 - 0.0 - - - - - - -
31/05:00am 2.6 WNW 7 8 1031.7 - 0.0 - - - - - - -
31/04:30am 4.3 WNW 6 7 1031.6 - 0.0 - - - - - - -
31/04:00am 4.1 WNW 6 7 1031.4 - 0.0 - - - - - - -
31/03:30am 4.8 WNW 6 7 1031.5 - 0.0 - - - - - - -
31/03:00am 5.0 WNW 6 7 1031.5 - 0.0 - - - - - - -
31/02:30am 4.8 WNW 6 8 1031.5 - 0.0 - - - - - - -
31/02:00am 5.3 WNW 6 7 1031.5 - 0.0 - - - - - - -
31/01:30am 5.3 WNW 6 7 1031.6 - 0.0 - - - - - - -
31/01:00am 5.4 WNW 6 7 1031.8 - 0.0 - - - - - - -
31/12:30am 5.5 WNW 6 7 1031.7 - 0.0 - - - - - - -
31/12:00am 5.9 WNW 6 7 1031.6 - 0.0 - - - - - - -
 
Date/Time
EST
Temp

°C
Wind Pressure Rain
since 9am
mm
Weather Cloud Vis
km
Sea
Height
m
Swell
Dir
 
Speed
knots
Gust
knots
hPa Trend Height
m
Period
s
Dir
30/11:30pm 5.9 WNW 5 6 1031.6 - 0.0 - - - - - - -
30/11:00pm 6.0 WNW 5 7 1031.5 - 0.0 - - - - - - -
30/10:30pm 6.3 WNW 5 7 1031.4 - 0.0 - - - - - - -
30/10:00pm 6.8 WNW 6 7 1031.3 - 0.0 - - - - - - -
30/09:30pm 7.2 WNW 5 6 1031.1 - 0.0 - - - - - - -
30/09:00pm 7.6 WNW 5 6 1030.8 - 0.0 - - - - - - -
30/08:30pm 7.8 WNW 5 5 1030.7 - 0.0 - - - - - - -
30/08:00pm 8.2 WNW 5 6 1030.6 - 0.0 - - - - - - -
30/07:30pm 8.0 W 3 4 1030.4 - 0.0 - - - - - - -
30/07:00pm 8.1 WNW 4 4 1030.0 - 0.0 - - - - - - -
30/06:30pm 8.3 WNW 4 4 1029.7 - 0.0 - - - - - - -
30/06:00pm 8.7 WSW 3 5 1029.3 - 0.0 - - - - - - -
30/05:30pm 8.2 WSW 3 5 1029.0 - 0.0 - - - - - - -
30/05:00pm 8.3 W 3 3 1028.6 - 0.0 - - - - - - -
30/04:30pm 9.3 SW 3 4 1028.3 - 0.0 - - - - - - -
30/04:00pm 10.6 SSW 2 4 1028.1 - 0.0 - - - - - - -
30/03:30pm 11.5 SSW 3 5 1027.8 - 0.0 - - - - - - -
30/03:00pm 12.3 S 3 6 1027.7 - 0.0 - - - - - - -
30/02:30pm 12.1 SSE 3 5 1027.5 - 0.0 - - - - - - -
30/02:00pm 12.3 S 3 6 1027.3 - 0.0 - - - - - - -
30/01:30pm 11.8 SSW 3 4 1027.3 - 0.0 - - - - - - -
30/01:00pm 11.1 SSW 3 6 1027.4 - 0.0 - - - - - - -
30/12:30pm 11.3 SSW 4 5 1027.4 - 0.0 - - - - - - -
30/12:00pm 12.0 WSW 4 7 1027.4 - 0.0 - - - - - - -
30/11:30am 11.1 W 4 6 1027.6 - 0.0 - - - - - - -
30/11:00am 10.4 WNW 4 7 1027.7 - 0.0 - - - - - - -
30/10:30am 9.7 W 4 7 1027.7 - 0.0 - - - - - - -
30/10:00am 8.5 W 4 6 1027.4 - 0.0 - - - - - - -
30/09:30am 7.7 W 4 6 1027.2 - 0.0 - - - - - - -
30/09:00am 6.7 WNW 4 7 1027.1 - 2.6 - - - - - - -
30/08:30am 6.2 WNW 5 7 1026.8 - 2.6 - - - - - - -
30/08:00am 5.8 WNW 6 7 1026.4 - 2.6 - - - - - - -
30/07:30am 5.7 WNW 6 7 1026.0 - 2.6 - - - - - - -
30/07:00am 5.9 WNW 6 7 1025.7 - 2.6 - - - - - - -
30/06:30am 6.4 W 6 8 1025.2 - 2.6 - - - - - - -
30/06:00am 6.7 W 6 8 1024.7 - 2.6 Recent precip. - - - - - -
30/05:30am 6.5 W 5 7 1024.5 - 2.4 - - - - - - -
30/05:00am 6.6 W 6 8 1024.2 - 2.4 - - - - - - -
30/04:30am 6.7 WNW 6 7 1023.8 - 2.4 - - - - - - -
30/04:00am 7.2 W 6 8 1023.3 - 2.4 - - - - - - -
30/03:30am 7.2 W 5 8 1023.2 - 2.4 - - - - - - -
30/03:00am 7.2 WNW 6 8 1023.1 - 2.4 - - - - - - -
30/02:30am 7.5 WNW 6 9 1022.9 - 2.4 - - - - - - -
30/02:00am 7.3 W 6 8 1022.7 - 2.4 - - - - - - -
30/01:30am 7.7 W 7 9 1022.3 - 2.4 - - - - - - -
30/01:00am 7.7 W 6 9 1022.2 - 2.2 - - - - - - -
30/12:30am 7.7 W 6 9 1021.9 - 2.2 - - - - - - -
30/12:00am 7.7 WNW 6 9 1021.8 - 2.2 Recent precip. - - - - - -
 
Date/Time
EST
Temp

°C
Wind Pressure Rain
since 9am
mm
Weather Cloud Vis
km
Sea
Height
m
Swell
Dir
 
Speed
knots
Gust
knots
hPa Trend Height
m
Period
s
Dir
29/11:30pm 7.6 WNW 6 8 1021.4 - 2.0 - - - - - - -
29/11:00pm 8.6 WSW 6 11 1021.1 - 2.0 - - - - - - -
29/10:30pm 8.3 WSW 6 9 1021.1 - 2.0 - - - - - - -
29/10:00pm 8.2 WSW 6 10 1020.9 - 2.0 - - - - - - -
29/09:30pm 7.8 W 6 8 1020.7 - 2.0 - - - - - - -
29/09:00pm 8.4 W 5 6 1020.5 - 2.0 - - - - - - -
29/08:30pm 8.7 W 5 8 1020.1 - 2.0 - - - - - - -
29/08:00pm 9.2 WSW 4 7 1019.8 - 2.0 - - - - - - -
29/07:30pm 9.2 WSW 3 6 1019.6 - 1.6 - - - - - - -
29/07:00pm 9.2 SW 6 11 1019.2 - 1.0 - - - - - - -
29/06:30pm 9.5 WSW 7 12 1018.7 - 0.8 - - - - - - -
29/06:00pm 9.7 SW 7 11 1018.3 - 0.8 Recent precip. - - - - - -
29/05:30pm 10.4 SW 7 12 1017.9 - 0.2 - - - - - - -
29/05:00pm 10.8 SSW 7 13 1017.2 - 0.0 - - - - - - -
29/04:30pm 11.2 SW 10 15 1016.8 - 0.0 - - - - - - -
29/04:00pm 11.4 SW 9 15 1016.6 - 0.0 - - - - - - -
29/03:30pm 11.9 SW 8 16 1016.2 - 0.0 - - - - - - -
29/03:00pm 12.8 SSW 10 16 1015.7 - 0.0 - - - - - - -
29/02:30pm 12.8 SSW 11 17 1015.2 - 0.0 - - - - - - -
29/02:00pm 13.1 SSW 10 17 1014.8 - 0.0 - - - - - - -
29/01:30pm 13.1 SSW 13 21 1014.5 - 0.0 - - - - - - -
29/01:00pm 13.3 SSW 8 18 1014.3 - 0.0 - - - - - - -
29/12:30pm 12.2 SSW 11 19 1014.2 - 0.0 - - - - - - -
29/12:00pm 12.4 SW 8 13 1014.2 - 0.0 - - - - - - -
29/11:30am 11.6 SW 8 13 1014.1 - 0.0 - - - - - - -
29/11:00am 11.0 SW 8 13 1014.3 - 0.0 - - - - - - -
29/10:30am 10.4 SW 8 14 1014.0 - 0.0 - - - - - - -
29/10:00am 9.7 W 6 9 1013.7 - 0.0 - - - - - - -
29/09:30am 8.9 WSW 4 7 1013.5 - 0.0 - - - - - - -
29/09:00am 8.5 W 6 10 1013.2 - 0.8 Rain - - - - - -
29/08:30am 7.9 W 5 7 1013.1 - 0.2 - - - - - - -
29/08:00am 8.1 W 6 9 1012.7 - 0.2 - - - - - - -
29/07:30am 7.6 W 8 11 1012.1 - 0.2 - - - - - - -
29/07:00am 7.5 W 7 11 1011.9 - 0.2 - - - - - - -
29/06:30am 7.3 W 6 9 1011.8 - 0.2 - - - - - - -
29/06:00am 7.3 W 6 9 1011.4 - 0.0 - - - - - - -
29/05:30am 7.5 W 6 9 1011.2 - 0.0 - - - - - - -
29/05:00am 7.3 W 8 11 1010.8 - 0.0 - - - - - - -
29/04:30am 6.8 W 7 10 1010.5 - 0.0 - - - - - - -
29/04:00am 7.0 W 6 10 1010.4 - 0.0 - - - - - - -
29/03:30am 7.0 WNW 5 7 1010.3 - 0.0 - - - - - - -
29/03:00am 7.0 WNW 5 7 1010.4 - 0.0 - - - - - - -
29/02:30am 6.7 W 6 8 1010.2 - 0.0 - - - - - - -
29/02:00am 6.4 W 6 7 1010.1 - 0.0 - - - - - - -
29/01:30am 6.6 W 6 8 1009.8 - 0.0 - - - - - - -
29/01:00am 6.6 W 7 9 1009.8 - 0.0 - - - - - - -
29/12:30am 6.4 W 6 7 1009.7 - 0.0 - - - - - - -
29/12:00am 6.2 WNW 5 6 1009.7 - 0.0 - - - - - - -
 
Date/Time
EST
Temp

°C
Wind Pressure Rain
since 9am
mm
Weather Cloud Vis
km
Sea
Height
m
Swell
Dir
 
Speed
knots
Gust
knots
hPa Trend Height
m
Period
s
Dir
28/11:30pm 6.1 WNW 5 6 1009.7 - 0.0 - - - - - - -
28/11:00pm 5.9 WNW 6 7 1009.6 - 0.0 - - - - - - -
28/10:30pm 6.1 W 7 8 1009.6 - 0.0 - - - - - - -
28/10:00pm 6.3 WNW 6 7 1009.5 - 0.0 - - - - - - -
28/09:30pm 6.2 WNW 7 7 1009.5 - 0.0 - - - - - - -
28/09:00pm 6.0 WNW 7 7 1009.3 - 0.0 - - - - - - -
28/08:30pm 6.1 WNW 6 7 1009.2 - 0.0 - - - - - - -
28/08:00pm 7.4 WNW 5 6 1009.0 - 0.0 - - - - - - -
28/07:30pm 7.8 WNW 4 5 1008.8 - 0.0 - - - - - - -
28/07:00pm 8.2 WSW 4 5 1008.7 - 0.0 - - - - - - -
28/06:30pm 8.6 W 4 5 1008.4 - 0.0 - - - - - - -
28/06:00pm 8.9 W 4 6 1008.1 - 0.0 - - - - - - -
28/05:30pm 9.6 WNW 2 3 1007.8 - 0.0 - - - - - - -
28/05:00pm 9.7 SSW 3 3 1007.6 - 0.0 - - - - - - -
28/04:30pm 10.2 SSW 2 3 1007.3 - 0.0 - - - - - - -
28/04:00pm 11.0 SSW 3 4 1007.1 - 0.0 - - - - - - -
28/03:30pm 11.8 S 4 5 1007.0 - 0.0 - - - - - - -
28/03:00pm 12.8 SSE 6 8 1006.7 - 0.0 - - - - - - -
28/02:30pm 13.1 SSE 5 7 1006.4 - 0.0 - - - - - - -
28/02:00pm 12.9 SSE 6 9 1006.3 - 0.0 - - - - - - -
28/01:30pm 13.2 S 6 9 1006.3 - 0.0 - - - - - - -
28/01:00pm 13.4 SSW 3 5 1006.3 - 0.0 - - - - - - -
28/12:30pm 12.7 SW 5 9 1006.4 - 0.0 - - - - - - -
28/12:00pm 12.3 WSW 4 7 1006.5 - 0.0 - - - - - - -
28/11:30am 11.6 WSW 5 7 1006.9 - 0.0 - - - - - - -
28/11:00am 11.0 W 6 9 1007.2 - 0.0 - - - - - - -
28/10:30am 10.1 WSW 6 11 1007.3 - 0.0 - - - - - - -
28/10:00am 8.9 WSW 6 10 1007.2 - 0.0 - - - - - - -
28/09:30am 7.7 W 5 8 1007.1 - 0.0 - - - - - - -
28/09:00am 6.9 W 7 10 1007.3 - 9.6 Recent precip. - - - - - -
28/08:30am 5.9 W 6 8 1007.3 - 9.6 - - - - - - -
28/08:00am 5.3 W 7 9 1007.3 - 9.4 - - - - - - -
28/07:30am 5.2 W 6 8 1007.3 - 9.4 - - - - - - -
28/07:00am 5.5 W 7 9 1007.2 - 9.4 - - - - - - -
28/06:30am 5.3 W 7 9 1007.0 - 9.4 - - - - - - -

Other Formats:

Comma delimited format used in spreadsheet applications
http://www.bom.gov.au/fwo/IDT60701/IDT60701.94987.axf

JavaScript Object Notation format (JSON) in row-major order
http://www.bom.gov.au/fwo/IDT60701/IDT60701.94987.json